Wind_Speed
8 10 12 14 10 8 9 6 4 5 7 10 13 11 8 8 11 10 8 8 8 8 8 11 14 14 14 13 12 10 10 11 12 11 10 9 7 7 9 11 14 17 20 18 20 23 22 18 18 17 16 15 13 13 13 13 12 11 10 9 10 11 12 14 14 15 16 16 16 15 12 8 7 5 5 5 5 5 5 6 7 8 10 11 10 11
8 11 14 14 11 10 10 8 9 9 10 12 12 11 8 9 10 6 8 6 4 7 9 11 13 14 15 14 11 11 12 12 12 12 12 12 12 12 12 13 15 18 20 21 23 25 23 21 20 19 17 16 14 13 13 14 14 13 12 11 12 12 13 14 15 15 16 17 17 17 14 10 7 6 5 4 4 4 4 4 5 6 7 8 8 9
11 14 14 12 13 15 13 11 13 14 14 14 12 12 12 12 11 6 7 4 1 3 7 9 12 15 13 13 12 12 15 14 12 13 14 15 14 16 17 15 15 17 20 22 24 24 23 22 22 20 19 17 16 15 14 15 15 14 13 12 13 12 13 13 14 15 16 16 16 17 15 11 9 7 6 5 5 4 4 4 5 5 5 6 6 7
13 12 11 10 13 16 14 12 13 13 13 14 12 13 14 12 12 9 4 3 5 5 8 11 15 17 12 13 15 14 16 17 15 14 15 16 15 15 18 18 16 16 18 21 23 24 25 25 24 23 20 18 17 17 16 16 15 14 13 12 13 12 12 13 14 15 15 15 15 16 15 11 8 7 6 6 5 4 3 3 3 3 4 4 5 6
16 11 8 8 10 12 11 9 10 11 13 13 14 15 16 14 13 11 4 1 5 8 11 13 16 17 13 12 14 15 15 16 15 14 14 16 15 14 16 18 15 13 14 18 22 23 25 27 27 25 22 20 20 19 19 18 16 15 13 12 13 12 12 13 13 13 14 14 13 14 14 10 7 6 5 5 4 3 2 2 2 2 3 3 4 4
14 11 9 8 11 11 10 10 11 12 13 14 14 15 16 16 13 12 9 6 7 9 11 12 11 13 13 14 16 17 17 16 15 14 13 14 14 13 14 15 11 10 13 18 22 22 25 28 28 27 26 23 22 22 21 20 18 17 15 14 14 13 12 12 13 12 13 13 13 14 13 10 7 5 5 4 3 3 2 2 3 3 3 3 3 3
11 8 7 7 9 10 10 13 13 13 14 14 11 11 12 14 14 13 13 12 12 11 8 9 9 9 11 14 15 15 17 17 15 14 13 13 14 14 14 14 11 10 13 16 20 21 24 27 26 26 28 28 25 23 23 21 20 19 17 16 15 14 13 12 12 11 11 12 12 13 13 10 6 5 4 3 3 3 3 4 4 4 4 4 4 4
11 9 8 7 9 10 12 14 12 12 15 14 11 9 10 12 13 13 14 15 14 14 10 9 11 12 14 15 12 11 12 14 15 14 12 12 14 14 15 16 15 15 15 15 17 19 22 24 26 27 30 31 27 24 23 21 21 21 18 17 16 15 13 12 12 11 11 11 12 12 13 10 6 4 3 3 4 4 5 5 6 6 6 6 6 6
9 11 9 8 10 13 14 13 12 12 13 14 12 10 10 11 12 12 13 14 14 14 14 13 13 12 13 14 12 10 11 11 13 14 13 12 12 13 14 13 13 15 15 15 15 18 20 22 25 26 28 32 29 25 23 21 20 21 19 19 18 17 14 12 12 12 11 11 12 12 12 10 6 4 4 3 4 5 5 6 6 6 6 6 6 6
8 11 10 9 11 12 13 12 12 12 12 12 11 10 11 13 13 12 12 14 14 12 13 14 14 11 9 12 11 11 14 13 12 13 13 12 10 11 13 12 10 10 11 13 13 16 19 19 21 23 26 30 25 20 20 21 21 21 20 20 20 19 16 14 13 12 11 11 12 12 12 10 7 5 4 3 4 5 6 6 6 6 5 5 5 4
12 12 10 10 12 12 12 12 11 11 10 9 10 11 13 13 13 13 13 13 12 10 12 15 16 14 9 8 10 9 12 13 13 12 12 13 11 9 12 13 9 7 7 9 10 12 15 19 20 21 24 24 17 13 17 19 21 23 22 22 22 21 19 16 15 14 12 12 12 13 12 10 7 6 5 4 3 4 5 6 6 6 5 5 4 3
13 12 10 10 12 12 13 13 10 10 12 11 11 12 11 11 12 12 13 13 9 7 10 14 15 17 13 8 7 6 7 9 8 11 14 13 10 9 9 9 7 8 7 6 9 12 12 15 15 15 16 15 14 15 17 16 19 23 24 24 25 25 22 19 18 16 14 13 13 13 12 11 8 7 6 4 4 3 4 5 6 5 5 4 4 3
14 14 13 11 11 10 10 12 12 12 12 12 13 12 9 8 8 8 8 7 7 8 9 10 11 11 12 10 9 7 7 8 5 8 16 13 9 10 7 7 8 7 7 9 16 18 12 10 11 11 11 11 13 15 17 17 18 20 23 25 28 28 25 22 21 18 16 14 15 14 12 11 10 9 7 6 5 4 4 4 4 4 4 4 3 3
11 12 13 12 12 10 9 11 12 11 10 11 12 10 7 6 5 5 5 4 6 10 10 7 5 6 7 8 8 8 8 11 8 8 15 14 14 13 6 5 7 7 11 16 17 15 11 12 12 13 13 14 15 15 17 19 20 20 21 24 29 31 29 26 24 21 18 16 16 15 13 12 11 10 9 7 6 6 5 4 3 3 3 3 3 3
9 8 10 11 11 10 9 10 11 9 9 12 12 10 10 10 7 5 4 4 4 7 8 5 2 4 4 2 3 7 9 11 10 9 12 13 15 14 8 6 8 11 16 16 14 13 12 14 15 15 16 16 16 16 17 20 21 22 22 23 29 34 33 29 27 24 20 18 17 17 14 13 12 12 11 10 8 7 7 6 5 4 2 1 1 2
11 10 10 12 11 9 9 9 9 10 11 11 10 12 12 11 11 10 9 10 9 7 7 6 5 5 3 3 5 8 8 8 9 9 10 10 9 11 11 11 12 16 16 12 11 11 10 12 14 14 15 15 15 17 19 21 22 22 24 24 27 34 36 33 30 26 23 20 18 18 15 13 13 13 13 12 11 9 9 9 8 7 6 4 2 2
10 10 9 9 10 11 11 10 9 9 9 8 8 11 10 8 11 13 10 11 11 7 6 9 11 8 4 4 7 9 9 9 10 10 10 11 11 12 12 14 17 17 11 6 6 6 7 8 10 11 11 12 13 15 17 19 21 22 23 23 26 33 37 36 33 29 25 22 19 18 16 14 13 14 14 14 13 12 11 11 10 10 9 8 6 5
9 10 9 8 9 11 12 12 13 12 11 11 10 8 6 7 11 12 8 6 7 6 6 10 14 13 9 6 8 11 12 12 11 11 13 13 12 12 13 15 16 12 9 7 5 4 4 4 5 7 7 8 11 12 12 14 16 18 21 23 27 32 35 35 34 31 27 23 20 18 17 15 14 15 14 15 15 15 13 13 13 12 11 11 10 9
8 11 12 11 13 14 12 12 14 15 15 16 15 11 8 8 8 9 8 5 5 6 5 8 12 13 10 6 10 15 14 12 12 13 14 12 11 13 14 13 11 11 11 10 8 5 5 5 5 5 6 7 9 11 11 10 10 10 16 21 26 29 29 29 32 32 30 25 22 20 19 17 16 16 16 16 17 17 15 14 15 14 13 13 13 12
8 10 11 10 13 14 11 12 13 13 14 16 16 14 12 11 9 10 10 7 6 6 4 7 9 6 3 4 7 13 13 13 14 13 13 12 12 14 16 13 12 12 11 10 9 7 6 7 7 7 8 8 9 10 10 9 7 5 10 19 23 25 24 23 25 28 29 27 24 23 21 20 19 19 18 18 19 19 18 16 16 16 15 14 14 14
7 9 12 11 11 12 11 12 12 11 11 13 14 14 13 13 12 13 13 12 11 8 4 5 6 1 2 1 3 7 10 13 13 13 13 14 14 15 16 13 11 12 11 10 10 9 8 9 9 10 10 9 9 9 9 8 6 3 4 12 19 22 23 21 21 22 24 25 25 25 25 24 23 22 21 20 21 21 21 19 19 18 18 17 15 14
8 8 11 13 13 14 14 13 12 11 10 10 10 12 13 13 11 9 9 11 11 8 6 7 6 1 4 5 4 5 8 12 14 13 12 14 15 17 15 11 11 12 12 12 11 11 11 10 11 12 12 11 10 9 8 8 8 6 4 6 11 16 20 21 22 21 22 24 24 24 25 27 25 24 23 22 23 24 24 23 21 19 19 19 18 16
10 9 11 13 14 15 16 15 15 13 13 13 12 13 14 14 12 10 7 7 8 9 10 11 8 1 3 4 4 5 7 12 16 14 12 13 18 20 17 13 13 13 13 13 13 13 13 12 13 13 13 13 12 11 10 8 8 9 8 8 9 12 15 17 19 19 22 27 27 22 22 25 26 26 25 23 25 27 27 26 24 22 22 22 21 19
13 11 12 16 16 18 18 19 20 17 14 15 15 15 17 17 17 16 14 12 13 13 11 10 6 2 4 3 1 4 5 7 12 14 13 14 18 19 17 15 13 14 15 15 14 15 15 15 16 16 15 15 14 14 13 11 10 10 9 10 12 13 16 18 20 20 21 26 27 24 22 25 29 31 29 25 26 30 31 28 24 25 26 25 23 22
9 6 10 13 12 13 14 14 15 15 15 14 12 11 13 15 17 17 15 12 13 14 11 10 7 2 3 2 1 2 4 6 8 12 13 14 16 16 17 16 14 13 15 15 15 15 15 14 16 17 17 17 16 16 15 13 11 11 11 11 12 14 17 20 23 25 25 27 28 28 28 30 34 37 37 34 33 35 37 32 27 28 30 28 26 25
8 5 9 10 8 7 8 7 5 7 8 9 10 11 11 13 15 14 11 9 11 12 11 13 10 3 3 5 3 4 6 8 10 11 11 11 11 11 12 14 14 13 14 15 16 15 14 14 14 13 14 15 15 15 14 13 12 11 10 10 10 12 14 16 19 22 25 27 29 30 30 32 34 36 37 36 35 34 36 35 33 32 32 30 27 25
11 10 12 13 14 14 14 15 13 13 14 13 13 15 15 15 15 11 10 10 11 12 12 14 12 9 8 7 4 5 6 8 10 11 13 13 11 10 9 9 11 12 15 18 19 19 17 16 14 13 12 11 11 12 13 12 12 11 11 10 10 10 11 13 14 16 17 19 21 23 25 27 28 30 30 30 29 27 28 31 34 33 33 33 29 24
13 13 15 15 19 21 20 23 22 20 20 19 18 19 19 19 17 13 13 15 13 13 14 13 11 14 14 10 6 5 6 8 9 11 14 13 11 10 9 7 8 10 13 18 21 23 23 20 17 15 14 13 12 13 13 13 12 12 12 12 11 11 11 11 11 12 13 14 15 17 19 21 22 22 22 22 21 20 20 25 28 28 29 30 26 21
11 13 15 15 19 20 20 22 21 21 21 21 21 21 21 21 20 18 19 20 18 19 20 17 17 20 18 13 11 10 9 9 9 10 13 13 12 13 11 10 10 10 10 14 18 23 24 23 22 20 17 17 17 17 16 17 16 15 15 15 14 13 13 13 12 12 12 12 13 14 15 16 17 17 17 17 17 17 17 19 23 24 25 26 24 23
11 12 12 13 16 18 18 19 19 20 21 22 23 23 22 22 22 22 23 22 22 24 25 23 23 25 22 18 17 16 14 12 11 11 12 14 15 16 15 14 13 11 11 13 16 17 16 18 23 24 21 19 19 20 20 20 20 20 19 19 19 18 17 17 16 16 16 16 17 17 16 17 18 17 18 18 18 19 19 20 22 23 24 25 26 27
13 12 9 10 14 16 16 16 17 18 19 21 22 21 20 21 22 23 24 23 22 23 24 23 25 26 23 19 18 18 17 17 16 16 16 17 18 19 19 18 17 14 12 13 17 17 12 12 17 20 22 21 19 20 22 21 22 24 23 22 23 23 23 23 22 21 22 22 21 21 21 22 23 23 22 22 21 22 22 22 23 23 24 24 25 26
13 12 9 10 14 16 14 14 15 17 19 22 23 22 22 22 22 22 22 22 21 21 21 22 25 25 20 17 19 19 18 18 18 17 18 19 19 21 22 21 18 17 15 14 17 18 13 12 12 12 16 19 18 20 22 21 22 24 24 23 24 25 25 26 26 25 25 24 24 24 24 25 26 26 26 26 26 26 25 24 24 24 25 26 27 27
11 10 10 10 13 16 13 12 15 15 15 17 18 18 19 21 21 21 21 22 23 23 23 23 24 23 19 18 18 18 17 19 18 15 14 17 18 19 20 21 20 20 20 18 21 19 13 13 14 13 14 14 15 19 21 21 22 23 22 21 22 23 24 24 25 26 26 25 25 25 25 25 26 26 26 27 27 28 28 27 26 25 25 26 27 28
12 12 13 12 14 15 13 13 14 14 12 12 11 11 13 15 16 17 17 18 20 22 24 24 23 21 18 15 14 14 16 17 15 13 15 18 19 18 19 20 20 20 20 21 22 20 15 17 19 18 15 13 15 18 19 20 23 23 21 21 21 21 21 22 23 24 24 24 24 24 24 24 25 25 25 25 25 26 27 27 26 25 25 24 25 26
16 16 16 15 15 16 15 14 12 10 11 12 12 12 14 14 14 15 16 15 14 14 17 20 21 19 17 16 15 17 20 18 15 13 13 14 15 15 16 20 19 19 20 21 20 20 21 23 23 20 17 17 18 16 15 20 25 24 22 22 21 20 20 20 20 21 22 23 22 23 23 23 23 24 24 24 23 23 24 24 24 24 24 23 23 23
19 18 16 16 16 16 15 14 12 11 13 13 13 14 15 13 12 15 16 14 12 12 13 15 15 15 14 14 14 16 18 18 18 14 9 10 13 14 15 20 21 21 24 23 20 22 24 23 22 20 18 18 17 12 13 20 26 25 23 22 21 21 21 21 21 21 22 23 22 22 23 23 23 23 23 23 23 22 22 22 23 23 23 23 23 23
20 19 17 16 15 15 16 17 17 18 18 16 14 14 13 11 10 11 13 12 11 12 14 13 11 11 10 9 10 12 11 10 11 10 8 10 15 14 13 16 19 20 23 21 16 16 21 21 19 18 16 17 17 16 17 22 25 25 23 23 23 23 23 23 23 23 23 23 24 24 24 24 24 24 24 23 23 23 23 23 23 23 24 24 24 24
20 19 17 16 15 16 17 16 14 14 13 9 10 12 13 13 13 14 14 14 11 12 15 14 9 7 8 8 9 10 9 7 9 10 12 12 13 11 7 8 12 14 15 14 9 7 10 14 14 12 11 13 15 17 19 23 25 25 24 24 24 24 24 24 24 24 24 24 25 26 26 27 27 26 25 24 23 22 22 22 23 24 24 25 25 26
17 17 16 17 17 17 17 14 12 11 8 4 5 10 13 14 13 11 12 11 9 11 14 14 11 9 8 8 7 5 6 7 9 11 12 11 11 10 5 3 6 9 9 9 7 5 8 12 14 12 12 14 14 15 19 22 25 26 25 25 26 25 25 26 26 26 26 26 27 28 28 29 29 29 28 26 24 23 22 22 23 23 24 26 27 29
13 14 15 18 20 20 19 18 16 14 9 5 4 5 8 11 8 6 6 4 4 5 6 6 7 9 10 9 8 4 5 7 9 10 10 11 10 8 5 4 6 8 8 7 7 9 14 17 17 15 14 14 13 15 19 23 25 26 27 27 28 28 28 28 28 28 28 29 29 29 30 31 32 32 32 30 28 27 26 26 26 26 27 28 29 29
11 12 15 18 20 21 21 20 19 14 10 9 6 4 7 10 7 5 5 3 3 4 4 4 6 8 9 9 9 8 8 9 9 8 8 9 10 10 8 9 9 9 8 9 11 16 20 22 21 19 17 17 18 21 23 25 27 28 29 30 31 31 31 31 31 31 32 32 32 32 33 33 34 34 35 34 33 32 31 31 31 31 31 32 32 31
9 10 12 15 17 19 18 19 19 15 10 9 8 6 7 8 5 4 4 4 6 8 7 7 8 8 9 11 10 11 13 12 11 11 9 9 11 12 11 12 12 11 11 12 15 17 18 18 19 19 19 20 22 22 24 26 28 29 31 32 33 34 35 35 35 35 35 35 35 36 37 37 37 37 36 36 36 36 36 35 36 35 35 35 35 34
8 9 11 13 14 15 16 15 13 10 7 6 6 4 3 4 5 5 5 5 8 9 9 10 11 10 12 13 12 12 14 13 13 14 14 13 13 14 14 15 14 14 13 14 15 15 14 15 16 18 19 20 20 21 24 27 31 32 33 34 35 35 36 36 36 36 36 37 38 38 39 38 38 38 38 37 38 38 38 38 38 38 37 37 37 36
7 9 10 11 9 9 11 10 8 8 9 9 7 7 7 7 9 9 9 9 11 12 12 13 14 14 14 15 14 14 14 15 16 18 18 17 16 16 18 18 17 17 17 17 17 16 16 18 19 20 21 21 20 21 23 26 31 34 35 35 35 35 35 35 35 36 36 37 39 39 39 39 40 39 40 40 40 39 38 39 40 41 40 40 39 38
5 7 8 9 9 8 11 12 13 14 13 11 11 12 10 9 10 10 11 13 14 14 15 17 17 16 14 14 16 16 16 17 18 19 21 22 21 19 20 21 20 19 20 21 21 20 19 20 21 22 22 21 21 22 22 24 27 30 32 33 34 35 36 36 36 36 37 37 39 40 41 41 41 41 42 42 41 40 39 40 42 43 43 42 40 39
7 9 9 9 11 12 13 13 13 14 13 12 14 14 11 11 12 13 13 15 15 15 17 19 20 20 18 16 16 17 18 18 18 19 21 23 23 22 22 23 23 22 21 22 24 24 23 23 24 24 24 23 23 23 24 24 25 27 29 31 32 34 35 36 36 36 36 36 37 39 40 41 41 42 42 41 41 40 40 42 44 45 44 42 41 41
11 14 13 11 12 13 13 11 10 12 14 15 14 13 11 12 14 14 15 15 15 15 16 18 20 23 24 22 21 20 20 21 21 21 22 23 23 23 22 24 25 25 24 23 24 24 24 25 25 25 26 27 26 25 25 25 27 30 32 32 32 34 34 35 35 34 33 33 34 35 37 39 40 40 39 39 40 41 41 42 45 45 43 41 41 39
12 15 14 11 12 14 14 12 12 16 19 18 15 12 11 12 14 15 16 16 16 17 18 19 20 22 23 24 24 24 24 23 23 24 24 25 25 24 24 25 25 25 25 23 23 24 25 25 26 26 28 29 27 25 26 27 29 31 33 32 32 33 33 32 32 32 32 33 33 35 36 37 38 39 38 39 41 40 39 41 43 42 39 37 36 35
13 15 13 11 12 13 12 12 14 17 16 14 12 12 13 15 16 17 17 18 18 19 20 20 21 22 24 25 25 25 26 26 25 25 26 26 25 25 25 25 25 25 25 24 24 25 26 27 27 28 29 29 28 26 27 29 29 30 31 31 31 31 31 30 31 32 33 33 34 36 37 37 37 38 39 40 39 38 37 38 38 37 35 33 31 31
12 12 11 10 10 10 10 11 13 16 15 13 12 14 15 17 19 20 20 21 22 23 24 23 24 25 26 27 28 28 29 30 30 29 30 30 29 29 29 28 27 25 25 26 27 27 27 28 29 30 31 31 29 27 28 28 28 29 30 29 29 30 30 31 33 33 34 34 35 36 37 37 37 38 38 38 37 36 35 35 35 33 31 27 24 22
10 9 8 8 9 10 11 13 14 15 16 15 16 18 20 20 21 21 22 23 27 29 29 29 29 30 30 30 31 31 32 32 32 32 33 33 34 34 34 33 32 30 28 28 28 28 28 28 29 30 29 28 27 27 27 27 27 29 30 30 30 31 32 32 34 34 34 35 36 36 36 37 37 37 37 36 35 34 33 32 30 27 23 20 18 18
Wind_Direction
232 240 248 243 239 247 235 237 296 307 294 302 313 296 256 250 252 234 195 180 213 240 243 232 236 237 230 236 235 227 230 223 224 224 221 232 237 251 248 233 230 220 214 209 202 208 212 210 209 213 223 229 235 237 234 238 244 250 259 271 284 295 305 312 319 327 335 342 348 351 343 329 323 314 306 302 297 287 274 264 255 249 254 256 256 256
236 246 251 248 247 257 250 249 268 278 285 290 296 292 275 262 256 212 164 156 183 230 249 248 249 243 228 239 252 234 229 227 226 229 229 230 236 249 246 241 242 234 227 221 218 217 213 211 211 213 220 227 235 239 239 241 245 251 257 268 279 290 300 308 316 325 333 340 346 351 347 340 333 327 328 326 318 314 304 291 277 264 260 260 259 259
243 246 253 252 247 255 262 267 265 267 280 285 279 274 270 265 259 217 166 167 154 237 249 246 261 268 243 237 252 240 235 238 235 236 236 233 234 240 243 239 231 233 235 228 225 223 221 218 215 215 218 224 234 239 243 246 247 253 258 266 277 285 296 305 314 322 332 339 344 349 347 341 339 337 339 340 331 324 312 299 292 285 277 275 270 262
247 246 253 241 231 245 261 278 279 274 275 273 266 262 262 262 260 250 207 225 265 259 255 259 277 288 270 241 246 243 237 236 238 243 241 236 233 236 246 248 238 233 232 231 231 225 222 222 219 219 218 221 232 239 245 249 250 256 261 266 274 282 292 302 311 318 328 336 340 346 346 338 332 335 341 342 334 323 314 302 294 291 286 281 276 268
257 253 248 240 240 252 261 271 274 269 265 258 253 254 259 264 267 267 266 256 272 263 255 262 274 274 259 238 239 240 233 229 236 244 241 237 234 233 245 252 244 230 227 234 235 224 220 223 224 224 221 222 232 240 247 251 254 258 261 266 270 278 289 298 307 315 323 330 333 341 344 334 323 331 339 336 327 321 324 319 306 296 286 278 280 281
253 253 236 248 266 264 259 260 258 256 259 260 254 249 256 267 273 274 275 262 258 262 247 240 257 258 244 238 240 239 231 228 235 238 236 238 232 224 232 237 226 209 218 230 232 225 222 225 225 223 221 220 228 240 246 249 253 256 257 261 265 274 284 291 301 311 318 322 326 335 341 331 319 329 334 326 323 326 329 322 307 294 286 286 286 288
242 262 237 251 267 258 258 259 254 248 252 260 261 252 254 264 268 265 268 260 252 267 257 220 239 266 257 253 251 244 233 225 228 233 234 237 229 218 217 221 226 224 215 217 227 231 228 230 230 228 227 223 220 234 246 248 251 254 255 257 259 267 275 283 294 302 310 315 318 328 336 328 313 321 332 333 338 335 322 307 298 291 287 287 287 289
234 253 247 261 262 253 259 256 249 246 248 256 267 273 264 261 263 258 258 258 254 267 269 230 239 264 265 262 255 244 233 219 217 227 233 232 227 220 214 219 238 251 248 243 248 246 235 233 234 233 237 233 220 225 243 247 249 254 254 254 256 261 266 272 280 291 301 307 310 318 329 326 308 307 321 338 346 336 321 310 301 297 292 288 284 282
241 246 252 268 258 252 255 252 247 246 249 256 264 276 270 259 264 263 258 259 257 260 260 245 241 251 255 259 252 226 221 221 217 221 226 225 220 216 213 218 231 238 243 246 251 253 244 240 241 238 242 242 224 218 237 246 247 252 252 252 254 255 258 262 268 278 288 295 300 307 319 319 302 294 305 326 347 341 331 322 316 312 306 301 294 285
253 250 262 266 255 253 250 248 254 252 253 258 258 267 270 260 259 260 255 258 259 252 253 252 247 251 255 255 252 225 215 222 220 214 216 214 206 206 207 206 206 204 212 223 237 257 256 252 257 254 250 247 229 214 234 245 247 250 249 250 252 253 253 255 259 267 275 283 290 296 308 311 294 278 285 304 336 348 346 338 332 331 326 318 311 302
254 247 255 261 257 255 250 255 259 249 251 257 255 261 266 256 250 254 251 253 260 254 250 251 246 250 256 245 248 240 213 210 220 220 210 200 194 197 200 197 203 216 225 237 242 255 254 246 253 258 251 250 246 237 241 246 251 253 252 250 249 250 251 249 251 257 265 274 279 286 296 299 285 272 273 288 315 340 351 353 347 340 335 329 326 329
257 245 244 259 260 254 257 265 263 244 246 256 257 261 267 259 250 251 248 243 248 254 253 258 256 247 246 244 239 236 197 189 215 219 197 186 186 188 190 190 203 218 212 222 216 211 231 244 251 259 253 252 259 254 246 247 250 251 252 251 247 247 246 245 247 251 256 266 270 276 285 287 277 268 266 273 287 312 338 352 358 353 346 342 341 347
256 252 254 261 253 244 252 261 258 244 239 245 249 252 261 266 255 248 247 242 250 266 264 277 289 258 239 247 234 222 215 197 197 200 186 178 180 176 169 183 195 200 198 215 219 214 231 258 261 265 259 257 262 259 257 259 254 248 248 247 244 244 243 241 243 245 249 258 263 266 272 277 272 265 266 267 272 284 301 327 353 4 2 359 0 5
249 245 251 256 243 232 243 256 259 248 230 237 248 247 245 251 258 254 253 253 252 266 261 251 295 275 239 257 241 208 193 183 165 158 169 180 198 190 173 195 199 195 199 212 226 237 259 267 263 264 260 262 267 266 266 267 265 259 252 244 239 239 239 238 239 241 243 249 257 258 259 266 268 265 265 263 266 275 279 290 307 342 9 18 22 26
262 247 242 247 237 226 237 250 265 268 251 249 252 249 240 237 253 264 260 274 276 288 279 227 223 269 226 203 179 160 155 168 171 171 179 195 210 203 189 178 181 198 210 223 246 262 267 264 264 267 264 266 267 263 262 265 268 266 259 249 238 234 233 233 234 236 237 243 251 252 250 256 262 264 267 266 267 270 270 272 277 282 294 327 33 40
262 261 253 244 231 227 239 246 260 270 265 260 258 254 245 235 246 256 264 283 295 303 288 241 234 264 228 161 164 165 165 173 175 184 194 192 186 181 176 178 198 222 232 244 255 253 257 261 264 268 269 271 268 264 264 266 264 261 259 252 238 230 228 228 230 232 232 237 245 248 246 246 254 261 266 269 268 269 270 270 270 271 271 263 247 244
255 264 264 241 228 231 243 255 258 257 263 271 264 259 260 256 253 257 269 277 273 270 262 245 241 246 238 210 203 196 192 184 176 174 173 166 161 163 177 204 229 239 239 234 236 243 254 262 265 269 273 277 277 276 274 269 261 254 252 246 234 229 224 220 225 228 228 232 237 242 243 241 248 256 263 269 270 271 273 273 270 269 271 270 262 254
259 268 270 241 239 242 242 259 263 255 263 268 264 265 276 279 262 257 267 271 260 257 250 245 243 241 243 225 199 195 189 180 181 175 164 160 161 170 191 218 239 243 230 227 240 249 252 265 278 281 287 293 290 289 286 277 266 253 245 237 232 233 224 214 217 223 225 227 230 236 238 239 245 250 255 263 267 269 273 274 273 269 267 270 270 267
261 270 270 247 251 258 246 251 260 259 258 255 259 271 275 273 265 254 254 257 262 266 262 262 258 253 259 245 196 194 195 195 194 178 166 162 164 188 211 227 239 240 236 240 245 245 259 283 295 304 314 318 309 299 294 292 283 257 239 231 231 238 232 213 209 216 222 225 225 229 234 236 240 244 248 253 259 264 267 269 272 271 268 267 269 269
267 265 270 256 258 265 250 241 255 264 262 250 247 256 262 261 260 256 256 256 260 262 266 274 270 261 285 279 205 195 201 204 197 186 180 172 172 203 227 240 246 244 245 249 247 249 266 283 294 305 313 319 321 311 301 300 305 275 234 229 232 239 237 221 209 209 215 224 226 226 230 235 236 239 243 246 251 257 259 260 265 269 271 270 269 270
269 260 267 268 266 266 249 239 253 269 274 263 249 250 260 259 252 256 257 254 259 268 277 269 265 279 61 308 208 196 203 200 193 197 196 178 180 212 232 243 247 245 251 255 255 259 267 276 289 299 305 312 318 315 308 300 302 305 234 235 240 243 241 236 228 218 215 223 230 230 232 235 237 239 242 245 250 254 255 255 257 261 268 272 271 272
260 258 268 269 263 260 253 249 261 270 268 269 263 260 268 268 262 262 254 246 257 280 299 288 282 319 121 149 165 182 205 205 196 193 184 174 195 225 238 245 245 246 255 261 263 266 267 273 282 289 297 303 305 306 307 301 292 280 249 240 248 252 252 248 244 238 229 227 231 233 236 239 241 244 246 247 248 251 253 254 254 255 259 265 268 269
267 261 268 269 264 264 265 263 267 268 262 264 267 263 270 279 279 278 272 269 278 283 280 277 278 279 139 165 199 206 206 206 199 188 175 187 215 236 247 251 246 246 254 262 267 271 271 274 278 281 285 290 293 291 288 287 284 269 250 243 241 247 256 257 253 253 247 239 235 234 240 245 247 248 249 251 254 256 255 254 255 256 255 257 262 266
270 261 262 267 271 273 273 268 264 259 249 251 262 266 268 272 271 269 273 278 281 280 277 276 272 198 167 170 220 216 188 177 184 185 186 202 225 243 256 261 258 254 256 261 266 271 274 276 278 279 276 275 278 280 276 269 266 260 252 248 244 243 250 257 260 263 261 253 245 243 246 247 248 251 255 261 263 260 258 255 256 262 262 259 259 264
262 257 257 264 274 276 271 262 256 252 241 237 252 267 270 272 268 266 273 278 272 270 271 274 276 213 190 238 305 230 194 167 177 189 196 215 234 248 259 266 264 258 256 259 262 264 268 271 273 276 275 271 269 269 269 264 259 258 256 251 250 251 253 257 260 260 262 263 261 259 257 253 254 258 263 265 263 264 266 262 257 260 262 262 261 262
253 259 263 268 273 273 271 270 280 297 284 265 265 268 275 287 281 267 268 274 268 269 268 263 267 286 297 290 274 225 211 201 202 203 205 215 225 230 243 257 263 264 264 264 263 261 257 255 258 264 268 269 269 266 264 262 261 260 262 262 260 258 254 254 256 257 259 262 264 265 262 259 259 262 264 266 266 270 272 264 255 254 257 260 262 263
248 256 259 263 264 266 274 283 296 311 304 290 280 272 269 281 287 274 263 264 269 283 281 268 271 289 294 288 263 232 228 223 223 222 216 208 199 197 211 241 259 265 270 271 269 266 260 255 254 254 257 262 267 269 267 266 266 264 265 269 270 268 263 257 255 257 260 263 264 264 264 262 262 263 265 268 269 272 273 265 258 256 260 262 261 260
247 254 254 256 260 264 269 277 284 289 288 285 282 278 271 272 278 271 258 261 269 279 277 274 291 302 303 309 308 284 265 251 242 232 222 212 208 209 205 213 236 250 264 271 271 269 265 260 257 255 258 262 263 267 270 268 269 271 269 267 267 267 267 264 261 257 258 261 262 263 264 263 263 266 269 272 273 275 276 270 263 262 267 269 264 257
247 255 258 258 262 265 267 272 277 278 279 280 279 280 277 273 276 270 262 266 271 272 274 279 287 289 292 301 305 299 289 272 258 245 237 232 232 234 229 223 227 238 252 260 265 269 268 265 261 258 261 267 269 269 270 269 268 272 274 273 271 268 264 262 261 260 260 261 261 262 265 267 267 270 272 273 274 274 270 266 264 265 270 274 273 268
244 255 263 265 270 274 272 273 276 274 274 275 274 276 276 272 271 268 266 268 269 270 274 279 279 277 278 285 288 287 280 269 260 251 247 244 241 242 242 237 232 237 244 248 253 260 264 263 261 259 259 264 270 272 273 274 274 272 273 276 277 275 272 268 265 266 268 269 269 269 270 273 274 276 279 278 276 274 271 268 268 268 269 271 273 273
246 255 267 279 281 280 277 276 277 274 273 275 275 273 272 272 271 269 268 268 267 269 273 276 277 277 276 277 279 280 277 269 264 259 256 255 250 246 243 237 237 244 244 241 243 243 245 258 263 262 259 259 266 273 274 276 277 274 274 277 279 278 278 277 275 274 274 274 275 274 273 274 276 279 282 283 280 278 276 273 271 271 270 269 269 271
255 260 267 281 280 277 279 280 277 277 277 276 277 274 269 269 271 271 270 267 266 270 275 276 277 280 285 283 278 279 278 269 264 265 265 259 253 250 250 245 244 248 242 239 244 241 238 253 261 258 257 259 264 269 271 274 277 277 277 276 276 276 277 279 280 280 281 281 280 279 277 276 276 278 280 282 283 283 282 279 276 273 272 272 272 274
253 259 264 276 279 277 280 282 282 288 284 275 276 277 268 263 267 270 269 265 264 268 271 273 275 280 286 285 277 276 272 259 256 265 273 264 248 239 243 245 246 248 245 245 249 245 238 245 250 250 253 254 256 263 271 280 279 277 276 272 270 272 274 275 277 278 280 282 283 283 283 281 280 280 280 280 281 283 283 283 280 277 275 275 275 275
251 258 263 267 272 277 282 286 285 281 271 263 272 282 272 263 269 276 274 270 267 266 266 267 272 278 282 280 275 273 269 262 262 273 281 275 260 244 239 241 242 243 242 242 244 240 232 229 233 242 250 248 255 267 276 280 276 272 270 268 268 270 271 272 274 276 277 279 280 281 280 280 280 279 279 279 279 279 280 281 281 280 279 277 276 276
256 258 260 259 264 272 279 282 275 264 262 269 276 280 274 266 265 269 271 270 270 273 273 270 270 277 285 285 277 270 265 256 249 257 272 276 269 261 257 253 249 245 244 241 235 227 224 223 227 239 250 253 261 271 269 266 268 269 269 269 270 271 271 273 277 281 283 284 284 283 281 279 277 276 276 276 276 276 276 277 278 279 278 278 277 276
253 253 254 256 261 267 269 264 257 263 277 283 280 276 269 260 260 266 267 263 263 272 279 274 270 275 280 281 280 280 275 261 249 250 269 279 264 252 251 248 241 237 238 234 221 217 221 225 229 236 247 255 259 257 250 257 266 268 268 268 269 270 272 275 278 281 284 285 285 283 282 280 278 276 275 274 274 274 274 274 275 275 276 277 276 275
247 249 250 252 254 259 263 261 263 272 279 279 273 267 254 238 237 249 254 255 260 269 270 267 272 279 276 271 275 277 272 269 269 258 243 251 253 244 243 246 235 227 228 226 219 220 226 232 239 243 254 261 254 241 242 254 263 265 265 265 266 268 271 274 278 281 283 284 284 282 281 279 278 277 276 276 276 275 275 275 275 275 275 275 275 275
241 243 244 247 249 253 261 266 270 274 277 265 248 246 242 235 235 242 256 265 267 266 263 257 256 273 280 280 281 278 268 276 297 278 243 238 246 237 234 246 233 220 219 221 225 237 242 249 253 250 253 258 248 239 243 251 258 261 261 262 264 268 272 274 277 280 281 283 283 283 282 281 279 277 277 277 277 277 278 278 277 277 276 275 275 274
234 237 241 248 252 253 256 260 260 261 271 276 253 253 256 255 250 253 269 272 257 255 263 255 234 224 237 248 255 286 306 295 292 282 259 246 241 228 218 235 227 221 224 224 227 251 262 259 253 248 257 264 259 252 251 254 259 261 262 264 266 269 272 274 276 277 279 280 282 283 283 281 278 276 274 273 273 275 277 279 281 282 282 281 279 276
234 239 243 245 248 250 250 253 257 259 259 260 274 285 272 264 260 255 261 250 217 238 274 275 258 250 249 251 252 272 310 291 281 282 270 250 236 226 228 249 235 231 240 240 239 247 250 247 247 252 264 267 265 266 266 265 266 267 267 269 271 273 275 275 276 276 277 278 280 282 283 283 280 277 274 272 271 272 274 278 281 284 287 286 283 281
239 244 249 248 250 251 250 252 258 258 248 242 254 283 278 275 278 263 253 258 257 267 291 299 293 292 285 284 289 290 283 270 265 277 282 268 260 257 252 247 239 238 249 251 247 246 246 246 250 257 263 266 270 275 277 275 274 273 274 275 275 276 277 278 278 278 278 279 280 282 283 283 282 280 277 274 273 273 274 277 280 283 287 287 284 284
251 253 258 256 254 256 257 259 261 260 259 263 271 282 279 282 293 262 245 288 302 298 304 294 286 294 291 284 279 271 267 265 264 266 268 265 266 269 267 257 247 245 252 254 252 250 251 255 262 269 278 286 286 281 278 279 279 278 278 278 279 279 279 279 279 279 279 281 282 283 283 282 281 280 278 276 274 273 273 275 278 280 283 285 284 284
268 261 260 260 260 262 264 264 262 263 283 306 314 320 299 293 309 291 264 281 295 290 293 292 288 290 286 280 273 265 265 270 272 268 266 264 263 267 269 266 261 260 261 260 260 262 264 266 269 272 275 277 278 278 281 284 284 282 280 279 279 279 278 278 278 278 278 280 281 282 283 282 281 279 278 277 275 274 273 275 276 277 279 280 282 283
274 265 267 271 272 268 264 265 274 293 318 335 331 318 311 303 307 306 292 293 301 300 298 297 293 290 288 286 285 282 279 276 270 265 265 267 268 269 268 264 263 269 273 272 269 267 266 267 269 270 268 267 271 279 284 285 282 280 279 279 279 279 279 279 278 278 278 278 280 281 281 280 279 278 277 277 277 276 277 277 278 278 278 278 280 281
271 268 278 280 278 276 274 282 296 304 313 316 292 283 296 306 309 314 307 303 305 302 296 289 280 276 282 287 284 280 279 280 277 273 271 269 267 270 273 267 257 255 261 268 270 268 267 269 270 270 270 272 274 275 277 280 279 276 275 277 279 281 281 281 280 279 278 278 278 277 277 277 277 276 275 276 277 278 279 279 278 278 277 277 278 279
273 273 276 279 283 284 278 279 291 301 306 304 288 284 296 305 306 307 301 294 291 284 279 278 271 263 263 273 280 279 277 278 280 281 281 278 274 275 276 273 266 258 256 262 265 263 263 268 270 268 262 257 255 257 259 263 269 272 274 277 280 281 281 280 280 278 277 275 274 272 272 272 272 272 273 274 276 276 277 277 276 275 276 276 276 276
280 279 276 279 286 287 283 285 298 301 295 290 286 289 297 299 298 294 284 280 285 284 278 278 277 271 268 274 282 283 281 281 281 280 278 276 277 279 279 278 277 273 269 269 269 266 266 268 271 272 267 259 255 255 254 254 259 267 275 279 281 281 280 280 280 278 276 273 270 269 268 268 269 270 272 274 274 274 274 274 273 274 275 275 275 275
292 294 292 289 284 280 282 290 293 284 277 275 280 291 301 299 297 295 288 285 292 294 290 287 286 285 283 284 285 284 283 282 280 279 277 274 272 274 277 278 278 276 274 274 272 269 269 269 268 270 270 267 262 261 262 265 268 273 278 279 279 278 279 279 278 276 272 270 269 269 269 270 272 274 274 274 273 273 274 274 274 274 275 274 272 271
293 299 299 295 289 283 283 292 296 289 285 289 295 299 299 294 291 291 291 289 291 293 291 288 283 277 275 276 278 277 278 278 276 275 277 276 270 266 267 269 272 274 275 274 270 265 263 263 263 261 262 264 265 266 270 275 278 278 278 278 277 278 278 277 275 273 273 273 274 274 274 275 276 276 275 274 274 274 274 273 273 273 272 270 268 266
297 298 297 297 295 290 288 298 308 308 305 305 300 296 295 293 290 291 292 293 294 293 291 290 287 282 279 278 279 279 280 282 282 280 278 278 275 271 269 266 264 265 266 267 267 263 257 256 257 256 258 264 270 273 275 277 279 278 278 278 277 276 275 274 273 275 276 277 277 277 278 278 276 275 274 275 275 274 273 272 271 270 267 266 264 260
296 295 303 306 299 294 292 296 304 305 301 298 297 298 299 297 294 294 294 293 293 292 290 290 291 290 287 285 283 283 283 282 282 281 279 278 277 277 275 271 267 263 260 258 259 259 256 257 259 260 264 269 272 273 276 278 278 277 276 275 275 273 272 273 275 276 277 277 277 277 277 276 275 274 274 274 273 272 271 269 268 265 260 256 253 244
Height
3092 3092 3091 3090 3090 3089 3088 3088 3087 3088 3088 3088 3089 3087 3085 3086 3085 3085 3086 3087 3089 3089 3089 3090 3090 3090 3091 3091 3092 3093 3095 3096 3098 3100 3097 3095 3096 3098 3100 3101 3102 3103 3105 3107 3108 3109 3111 3113 3113 3114 3115 3116 3116 3117 3118 3118 3119 3120 3120 3121 3121 3121 3121 3121 3121 3121 3121 3121 3120 3120 3120 3119 3119 3119 3119 3120 3120 3120 3120 3120 3121 3122 3122 3122 3122 3123
3091 3091 3089 3088 3089 3087 3087 3087 3087 3088 3089 3089 3089 3088 3087 3086 3086 3086 3086 3087 3089 3089 3090 3090 3089 3090 3090 3091 3091 3092 3094 3094 3096 3098 3099 3098 3097 3097 3099 3101 3101 3102 3104 3106 3108 3108 3110 3112 3112 3112 3114 3115 3116 3117 3117 3118 3118 3119 3120 3120 3120 3120 3120 3120 3120 3120 3120 3119 3119 3119 3118 3118 3119 3118 3119 3119 3119 3119 3119 3119 3119 3120 3120 3120 3120 3121
3090 3089 3088 3087 3087 3087 3087 3088 3087 3088 3089 3089 3089 3089 3088 3086 3086 3085 3086 3088 3089 3089 3090 3090 3089 3088 3089 3090 3091 3092 3093 3093 3094 3096 3098 3099 3099 3097 3096 3099 3101 3101 3103 3104 3105 3107 3108 3110 3111 3111 3112 3114 3115 3116 3116 3117 3117 3118 3119 3119 3119 3119 3119 3119 3119 3119 3119 3119 3119 3118 3118 3117 3118 3118 3118 3118 3118 3118 3118 3118 3118 3118 3119 3119 3119 3119
3088 3087 3086 3086 3085 3085 3087 3088 3088 3089 3089 3089 3089 3088 3087 3086 3085 3085 3085 3087 3088 3089 3090 3090 3089 3088 3088 3089 3090 3091 3092 3092 3094 3095 3096 3097 3099 3098 3095 3095 3099 3101 3102 3103 3103 3105 3107 3109 3110 3110 3110 3112 3114 3115 3116 3116 3116 3117 3118 3118 3118 3118 3119 3119 3119 3118 3118 3118 3118 3118 3118 3118 3118 3118 3117 3117 3117 3117 3117 3117 3117 3117 3118 3118 3118 3118
3086 3085 3085 3085 3084 3085 3087 3088 3088 3089 3088 3088 3088 3088 3087 3086 3085 3085 3085 3086 3088 3089 3089 3090 3090 3088 3088 3089 3089 3090 3090 3091 3092 3093 3095 3095 3097 3099 3095 3092 3095 3098 3100 3101 3101 3104 3105 3107 3109 3109 3109 3111 3113 3114 3114 3115 3115 3115 3116 3117 3117 3118 3118 3118 3118 3118 3118 3118 3118 3118 3118 3118 3118 3117 3117 3117 3117 3117 3117 3117 3117 3117 3117 3117 3118 3117
3084 3083 3084 3084 3085 3086 3087 3087 3088 3088 3088 3087 3087 3086 3086 3086 3086 3086 3086 3086 3087 3088 3088 3089 3089 3086 3087 3087 3087 3089 3089 3090 3091 3092 3093 3094 3096 3098 3096 3092 3093 3095 3097 3099 3100 3102 3103 3104 3106 3107 3107 3108 3110 3112 3113 3113 3114 3114 3115 3115 3116 3117 3117 3117 3117 3117 3117 3117 3117 3117 3117 3117 3117 3117 3117 3117 3117 3117 3117 3117 3117 3117 3117 3117 3117 3117
3082 3082 3083 3084 3085 3085 3086 3086 3087 3087 3087 3086 3084 3085 3086 3086 3086 3086 3086 3086 3086 3086 3086 3088 3088 3085 3085 3085 3085 3086 3086 3088 3090 3091 3092 3093 3094 3096 3097 3094 3092 3094 3097 3099 3100 3101 3101 3102 3104 3106 3106 3106 3107 3110 3112 3112 3112 3112 3113 3114 3114 3115 3116 3116 3117 3117 3117 3117 3117 3117 3117 3117 3117 3117 3117 3117 3117 3117 3117 3117 3117 3116 3116 3116 3116 3116
3082 3082 3082 3083 3084 3085 3085 3085 3085 3086 3085 3084 3083 3085 3085 3085 3085 3086 3086 3085 3085 3086 3085 3086 3087 3086 3084 3084 3084 3084 3085 3086 3088 3090 3091 3092 3093 3094 3096 3095 3093 3093 3094 3096 3098 3099 3100 3100 3102 3104 3105 3105 3104 3106 3109 3110 3110 3110 3111 3112 3113 3114 3115 3116 3116 3116 3116 3116 3116 3116 3116 3116 3117 3117 3117 3117 3116 3116 3116 3116 3116 3116 3116 3116 3116 3116
3081 3082 3082 3083 3083 3083 3083 3083 3084 3084 3084 3083 3084 3085 3085 3085 3085 3085 3085 3084 3084 3085 3084 3084 3085 3084 3082 3082 3082 3083 3084 3085 3087 3089 3090 3091 3092 3093 3095 3096 3096 3094 3094 3094 3095 3096 3097 3098 3100 3101 3103 3105 3102 3102 3106 3108 3108 3109 3110 3111 3111 3112 3114 3115 3115 3115 3116 3116 3116 3116 3116 3116 3116 3116 3116 3116 3116 3116 3116 3116 3115 3115 3115 3115 3115 3115
3081 3081 3082 3082 3082 3082 3082 3082 3082 3082 3082 3083 3083 3084 3084 3084 3084 3084 3084 3083 3083 3083 3082 3083 3084 3082 3080 3080 3081 3082 3083 3084 3085 3087 3089 3090 3091 3093 3094 3095 3095 3095 3095 3095 3095 3095 3096 3097 3099 3098 3100 3102 3099 3098 3103 3106 3106 3107 3108 3109 3110 3111 3113 3114 3114 3114 3115 3115 3115 3115 3115 3115 3116 3116 3116 3116 3116 3116 3116 3116 3115 3115 3115 3115 3114 3114
3080 3080 3080 3081 3081 3081 3081 3081 3081 3081 3082 3082 3083 3083 3083 3082 3082 3082 3082 3082 3082 3080 3080 3081 3082 3081 3079 3079 3080 3081 3081 3083 3084 3086 3087 3089 3090 3091 3091 3093 3094 3095 3096 3096 3095 3095 3095 3096 3097 3097 3098 3099 3096 3096 3102 3104 3104 3105 3106 3107 3108 3109 3111 3112 3112 3113 3114 3114 3114 3114 3115 3115 3115 3115 3116 3116 3116 3116 3116 3115 3115 3115 3115 3114 3114 3114
3079 3078 3078 3079 3079 3079 3080 3079 3080 3080 3081 3082 3082 3082 3081 3081 3081 3081 3080 3081 3080 3079 3079 3079 3080 3079 3078 3078 3079 3080 3081 3082 3083 3084 3085 3087 3089 3089 3090 3092 3094 3095 3096 3096 3094 3092 3092 3094 3096 3096 3096 3096 3096 3098 3101 3102 3103 3103 3104 3106 3106 3107 3109 3111 3111 3111 3112 3113 3114 3114 3114 3114 3115 3115 3115 3116 3116 3116 3116 3116 3115 3115 3115 3115 3114 3114
3078 3078 3077 3078 3078 3078 3079 3079 3079 3079 3079 3080 3080 3081 3081 3081 3082 3081 3080 3080 3080 3078 3078 3078 3078 3077 3076 3078 3079 3079 3081 3083 3083 3083 3085 3087 3088 3088 3090 3092 3093 3094 3095 3093 3089 3089 3092 3094 3095 3095 3095 3094 3096 3098 3099 3099 3101 3102 3102 3103 3103 3104 3107 3109 3109 3110 3111 3112 3112 3113 3113 3113 3114 3114 3115 3116 3116 3116 3116 3116 3116 3116 3115 3115 3115 3115
3076 3076 3077 3077 3077 3077 3078 3078 3077 3077 3077 3079 3079 3079 3081 3082 3083 3083 3081 3080 3080 3078 3077 3078 3078 3076 3076 3078 3078 3078 3080 3082 3082 3083 3084 3086 3086 3087 3090 3092 3092 3092 3091 3088 3087 3090 3093 3093 3094 3095 3095 3095 3095 3096 3096 3097 3098 3099 3100 3101 3101 3101 3104 3106 3107 3108 3109 3110 3111 3111 3112 3112 3113 3114 3115 3115 3116 3116 3116 3116 3116 3116 3116 3116 3116 3116
3075 3075 3075 3076 3076 3076 3077 3077 3077 3076 3076 3077 3077 3078 3079 3080 3082 3082 3081 3080 3079 3078 3077 3078 3078 3076 3076 3078 3078 3078 3079 3081 3082 3082 3083 3084 3085 3087 3089 3091 3089 3087 3087 3088 3089 3091 3091 3092 3092 3093 3094 3095 3095 3094 3094 3095 3096 3097 3097 3098 3098 3098 3100 3103 3104 3105 3106 3107 3109 3110 3110 3111 3112 3113 3113 3114 3115 3116 3116 3116 3116 3116 3116 3116 3116 3116
3075 3074 3074 3074 3075 3076 3076 3076 3077 3076 3076 3076 3076 3077 3077 3077 3079 3079 3079 3078 3078 3078 3077 3077 3077 3076 3076 3078 3079 3079 3080 3081 3082 3082 3083 3084 3085 3086 3087 3087 3085 3084 3087 3089 3090 3089 3089 3090 3091 3091 3092 3093 3093 3093 3093 3093 3094 3094 3094 3095 3095 3094 3096 3099 3101 3102 3104 3105 3106 3108 3109 3110 3111 3112 3112 3113 3114 3115 3115 3116 3116 3116 3116 3116 3116 3116
3074 3073 3072 3073 3073 3075 3076 3075 3075 3076 3076 3075 3075 3075 3075 3076 3077 3077 3077 3077 3077 3078 3076 3075 3075 3075 3076 3077 3078 3079 3080 3081 3081 3082 3082 3083 3084 3084 3085 3084 3083 3084 3088 3089 3088 3088 3088 3088 3089 3090 3090 3091 3091 3091 3091 3091 3091 3091 3092 3092 3092 3091 3091 3094 3097 3099 3101 3102 3104 3105 3107 3108 3109 3110 3111 3112 3113 3114 3114 3115 3115 3116 3116 3116 3116 3116
3073 3072 3072 3072 3073 3073 3074 3075 3074 3075 3075 3075 3074 3074 3074 3076 3076 3076 3076 3076 3076 3076 3074 3072 3073 3073 3074 3075 3076 3078 3079 3080 3081 3081 3082 3082 3082 3083 3083 3082 3083 3085 3086 3087 3088 3088 3087 3088 3088 3088 3089 3089 3089 3089 3089 3089 3089 3089 3089 3089 3089 3087 3086 3088 3093 3096 3097 3099 3101 3103 3105 3107 3108 3109 3110 3111 3111 3112 3113 3114 3114 3115 3115 3115 3115 3116
3073 3072 3071 3072 3072 3072 3073 3074 3073 3073 3074 3074 3073 3073 3074 3074 3074 3075 3075 3075 3076 3075 3073 3071 3071 3071 3072 3073 3074 3076 3078 3079 3081 3081 3081 3081 3081 3081 3081 3082 3083 3084 3085 3086 3086 3086 3086 3087 3087 3087 3088 3088 3088 3087 3087 3087 3087 3087 3087 3087 3087 3087 3087 3087 3089 3092 3095 3096 3098 3101 3103 3105 3106 3107 3108 3109 3110 3110 3112 3112 3113 3113 3114 3114 3114 3114
3073 3072 3070 3070 3071 3070 3070 3072 3072 3072 3072 3071 3072 3072 3072 3073 3073 3073 3073 3073 3074 3073 3072 3073 3071 3070 3071 3072 3073 3075 3076 3078 3080 3080 3081 3081 3080 3080 3081 3082 3082 3083 3084 3084 3084 3085 3085 3085 3086 3086 3086 3086 3086 3086 3086 3085 3085 3086 3086 3086 3086 3086 3089 3089 3088 3089 3091 3094 3096 3098 3101 3103 3104 3105 3106 3108 3108 3109 3110 3111 3111 3112 3112 3113 3113 3113
3072 3072 3070 3070 3070 3069 3069 3070 3071 3071 3071 3070 3070 3070 3071 3072 3072 3072 3071 3071 3072 3071 3071 3072 3071 3070 3071 3073 3074 3075 3076 3077 3079 3080 3080 3080 3079 3079 3080 3081 3081 3082 3082 3083 3083 3084 3084 3084 3084 3085 3085 3085 3085 3085 3085 3085 3085 3085 3085 3086 3086 3086 3088 3090 3090 3089 3089 3093 3095 3097 3099 3101 3102 3103 3105 3106 3107 3107 3108 3109 3109 3110 3111 3111 3112 3112
3071 3071 3070 3069 3069 3068 3068 3069 3069 3070 3070 3070 3070 3071 3071 3072 3071 3071 3070 3070 3071 3070 3071 3072 3071 3070 3072 3073 3074 3075 3076 3077 3079 3080 3079 3078 3078 3078 3079 3080 3080 3081 3081 3081 3082 3082 3083 3083 3083 3083 3083 3084 3084 3085 3085 3084 3084 3084 3084 3085 3086 3086 3087 3089 3090 3089 3089 3091 3093 3095 3098 3099 3100 3102 3103 3104 3105 3106 3106 3107 3108 3108 3109 3110 3110 3111
3069 3070 3069 3068 3068 3067 3067 3067 3068 3069 3070 3070 3070 3070 3071 3071 3070 3070 3069 3069 3070 3071 3072 3073 3071 3070 3072 3074 3074 3074 3075 3076 3077 3079 3079 3077 3077 3078 3078 3079 3079 3080 3080 3080 3081 3081 3081 3082 3082 3082 3082 3082 3083 3084 3084 3084 3084 3084 3084 3084 3085 3086 3087 3088 3088 3089 3090 3090 3091 3093 3096 3097 3099 3100 3101 3102 3103 3104 3104 3105 3106 3107 3107 3107 3109 3109
3067 3069 3069 3067 3066 3065 3065 3065 3065 3066 3068 3068 3069 3069 3070 3069 3069 3069 3069 3069 3070 3070 3071 3071 3070 3070 3072 3074 3073 3073 3074 3075 3075 3077 3078 3076 3076 3077 3077 3077 3078 3078 3079 3079 3079 3080 3080 3080 3081 3081 3082 3082 3082 3082 3083 3083 3083 3084 3084 3084 3084 3085 3086 3087 3088 3088 3089 3089 3089 3091 3093 3095 3096 3097 3098 3100 3101 3102 3102 3103 3104 3105 3105 3106 3107 3107
3067 3069 3068 3067 3065 3064 3063 3063 3062 3064 3065 3066 3067 3068 3068 3068 3068 3068 3069 3069 3068 3069 3070 3070 3068 3069 3071 3072 3073 3073 3074 3075 3076 3077 3077 3076 3076 3076 3075 3076 3076 3077 3077 3078 3078 3079 3079 3079 3079 3079 3080 3080 3081 3081 3082 3082 3082 3082 3083 3083 3084 3084 3085 3085 3086 3087 3087 3088 3089 3091 3092 3094 3094 3095 3096 3098 3099 3099 3100 3101 3101 3102 3103 3104 3105 3105
3067 3068 3067 3066 3065 3063 3062 3061 3062 3063 3064 3064 3065 3066 3067 3067 3067 3067 3068 3069 3068 3068 3069 3069 3067 3069 3070 3071 3072 3073 3073 3075 3076 3077 3076 3075 3075 3075 3074 3074 3075 3075 3075 3076 3077 3077 3077 3078 3078 3078 3078 3079 3079 3079 3080 3080 3081 3081 3082 3082 3083 3083 3084 3084 3084 3085 3086 3087 3087 3088 3090 3091 3092 3092 3093 3095 3096 3096 3097 3097 3098 3098 3099 3101 3103 3103
3065 3066 3066 3066 3065 3064 3062 3061 3062 3064 3064 3064 3065 3065 3065 3066 3066 3066 3067 3067 3067 3068 3067 3067 3068 3069 3070 3070 3071 3072 3073 3073 3074 3076 3075 3075 3074 3074 3074 3074 3074 3074 3074 3074 3075 3075 3076 3076 3077 3078 3078 3078 3078 3078 3078 3079 3080 3080 3081 3082 3082 3082 3083 3083 3083 3084 3084 3085 3086 3086 3087 3088 3089 3090 3091 3092 3093 3093 3093 3093 3093 3095 3096 3098 3099 3099
3063 3064 3064 3065 3064 3063 3063 3062 3062 3064 3063 3063 3064 3063 3064 3064 3064 3065 3065 3066 3067 3067 3065 3066 3068 3068 3068 3070 3070 3071 3072 3072 3073 3074 3074 3073 3073 3073 3073 3074 3075 3074 3073 3073 3073 3073 3074 3075 3076 3076 3077 3077 3077 3078 3078 3078 3079 3079 3080 3081 3081 3082 3082 3082 3082 3082 3083 3084 3084 3085 3086 3086 3087 3088 3088 3089 3089 3090 3090 3090 3090 3092 3094 3095 3095 3095
3062 3062 3062 3063 3062 3061 3062 3062 3062 3062 3062 3062 3062 3061 3062 3062 3063 3063 3063 3065 3066 3065 3063 3065 3067 3067 3067 3069 3069 3070 3071 3071 3072 3073 3072 3073 3073 3073 3073 3074 3074 3074 3073 3072 3071 3070 3071 3072 3073 3074 3074 3075 3075 3076 3076 3077 3077 3078 3078 3079 3080 3080 3081 3081 3081 3081 3082 3082 3082 3083 3084 3084 3085 3086 3086 3087 3087 3088 3088 3089 3089 3090 3090 3091 3091 3091
3060 3060 3061 3061 3060 3059 3060 3060 3060 3060 3060 3060 3060 3060 3060 3061 3061 3061 3062 3063 3064 3063 3062 3064 3065 3065 3066 3068 3068 3069 3070 3070 3070 3071 3071 3072 3072 3072 3072 3072 3073 3073 3073 3072 3070 3069 3069 3068 3069 3070 3071 3072 3073 3073 3074 3074 3075 3076 3077 3077 3078 3078 3079 3080 3080 3080 3080 3081 3080 3081 3081 3081 3082 3083 3084 3085 3085 3086 3086 3087 3087 3087 3087 3087 3088 3088
3059 3059 3060 3060 3059 3058 3058 3058 3058 3059 3059 3058 3057 3058 3058 3059 3059 3059 3060 3061 3062 3061 3061 3063 3062 3062 3064 3066 3066 3067 3067 3068 3068 3069 3070 3070 3071 3071 3070 3070 3071 3072 3073 3071 3069 3068 3067 3066 3066 3066 3067 3069 3069 3070 3071 3072 3072 3072 3074 3075 3075 3075 3076 3076 3077 3078 3078 3078 3078 3079 3079 3079 3079 3080 3081 3081 3082 3082 3083 3083 3084 3084 3084 3085 3085 3085
3057 3058 3059 3059 3057 3056 3056 3057 3057 3057 3057 3055 3054 3055 3056 3057 3057 3058 3058 3059 3059 3060 3060 3060 3059 3059 3062 3063 3064 3064 3065 3065 3066 3066 3067 3067 3067 3068 3068 3068 3069 3069 3070 3070 3067 3066 3066 3065 3064 3063 3064 3066 3067 3066 3067 3069 3069 3069 3071 3072 3072 3072 3072 3073 3073 3074 3074 3075 3075 3075 3076 3076 3076 3077 3077 3078 3078 3079 3080 3080 3081 3081 3081 3082 3082 3082
3056 3057 3058 3058 3056 3055 3055 3056 3056 3056 3055 3053 3053 3054 3054 3054 3055 3055 3056 3057 3058 3058 3058 3057 3058 3059 3061 3061 3061 3061 3061 3061 3062 3063 3063 3062 3062 3063 3065 3066 3067 3067 3067 3067 3066 3065 3065 3065 3063 3061 3061 3063 3063 3063 3064 3065 3066 3066 3067 3068 3069 3069 3070 3070 3070 3071 3071 3071 3071 3072 3072 3072 3073 3073 3074 3074 3074 3075 3076 3076 3077 3077 3078 3078 3078 3078
3055 3056 3056 3057 3055 3054 3054 3055 3055 3054 3051 3050 3051 3052 3052 3052 3053 3053 3053 3054 3055 3056 3055 3055 3056 3058 3058 3058 3058 3058 3057 3058 3059 3060 3061 3060 3059 3060 3061 3061 3063 3063 3064 3064 3063 3063 3063 3062 3059 3057 3058 3060 3060 3060 3062 3062 3061 3063 3064 3065 3065 3066 3067 3067 3067 3067 3068 3068 3069 3069 3069 3069 3069 3070 3070 3070 3071 3071 3071 3072 3073 3073 3074 3074 3074 3074
3053 3054 3054 3055 3054 3053 3053 3054 3053 3050 3047 3048 3050 3050 3050 3050 3051 3051 3051 3051 3052 3052 3053 3054 3055 3055 3055 3056 3056 3055 3054 3056 3056 3056 3057 3057 3057 3058 3058 3058 3060 3060 3060 3059 3059 3059 3058 3057 3056 3056 3056 3057 3057 3058 3060 3059 3058 3059 3061 3062 3062 3063 3064 3064 3064 3064 3064 3065 3065 3065 3066 3066 3066 3066 3067 3067 3067 3068 3068 3068 3069 3069 3070 3070 3071 3071
3051 3052 3052 3053 3053 3052 3052 3052 3050 3046 3046 3048 3049 3048 3048 3048 3049 3049 3049 3050 3050 3050 3050 3051 3052 3053 3053 3054 3054 3053 3052 3052 3052 3053 3055 3055 3055 3055 3054 3054 3055 3055 3054 3054 3055 3054 3053 3053 3053 3054 3054 3054 3054 3056 3056 3056 3055 3057 3059 3059 3060 3061 3061 3061 3062 3062 3062 3062 3062 3062 3062 3062 3063 3063 3063 3064 3064 3064 3065 3065 3065 3066 3066 3066 3066 3067
3049 3050 3050 3051 3051 3050 3049 3048 3046 3045 3045 3047 3046 3046 3045 3045 3047 3047 3047 3048 3049 3049 3049 3049 3050 3051 3051 3052 3052 3050 3048 3049 3050 3052 3053 3052 3051 3051 3050 3050 3051 3050 3049 3051 3051 3051 3050 3050 3051 3051 3051 3051 3052 3052 3053 3053 3053 3054 3056 3057 3057 3058 3058 3058 3059 3059 3059 3059 3059 3059 3059 3060 3060 3060 3060 3060 3061 3061 3061 3061 3062 3062 3062 3062 3062 3062
3046 3047 3048 3048 3048 3048 3048 3046 3045 3045 3044 3043 3043 3043 3043 3043 3045 3045 3045 3047 3047 3047 3046 3047 3048 3049 3049 3049 3048 3046 3046 3048 3049 3050 3050 3049 3048 3048 3048 3049 3049 3048 3048 3049 3049 3048 3048 3048 3049 3049 3049 3048 3049 3049 3050 3050 3051 3052 3053 3054 3054 3055 3055 3056 3056 3056 3056 3056 3056 3056 3056 3056 3056 3057 3057 3057 3057 3058 3058 3058 3058 3058 3058 3058 3058 3058
3043 3044 3046 3046 3046 3046 3047 3045 3044 3044 3043 3042 3042 3041 3041 3042 3043 3044 3045 3045 3045 3044 3044 3045 3045 3045 3045 3045 3044 3045 3046 3048 3048 3047 3047 3047 3045 3045 3046 3047 3047 3047 3047 3047 3047 3047 3047 3047 3046 3046 3045 3045 3046 3046 3046 3047 3048 3049 3049 3050 3051 3052 3052 3052 3053 3053 3053 3053 3053 3053 3053 3053 3053 3053 3053 3054 3054 3054 3054 3054 3054 3054 3054 3054 3053 3053
3042 3043 3044 3044 3043 3044 3045 3044 3043 3043 3042 3041 3041 3041 3040 3040 3042 3043 3044 3043 3042 3042 3043 3044 3044 3044 3043 3043 3044 3044 3046 3047 3046 3045 3044 3044 3044 3044 3044 3045 3045 3045 3045 3045 3045 3045 3044 3044 3043 3043 3043 3043 3044 3043 3044 3044 3045 3045 3046 3046 3047 3048 3048 3049 3049 3049 3049 3049 3049 3049 3049 3049 3049 3048 3049 3049 3050 3050 3050 3050 3050 3050 3050 3049 3049 3049
3041 3041 3042 3042 3041 3042 3042 3042 3042 3042 3040 3040 3040 3040 3039 3040 3041 3042 3042 3041 3040 3041 3041 3042 3042 3043 3043 3043 3043 3043 3044 3043 3043 3042 3043 3043 3043 3042 3042 3042 3042 3042 3042 3043 3042 3041 3040 3040 3041 3040 3040 3040 3041 3041 3041 3041 3042 3042 3042 3042 3042 3043 3044 3044 3045 3045 3045 3045 3045 3045 3045 3045 3045 3044 3044 3045 3045 3046 3046 3046 3046 3046 3046 3045 3045 3046
3040 3040 3040 3040 3040 3040 3040 3040 3040 3040 3039 3038 3038 3038 3038 3039 3040 3040 3039 3040 3039 3040 3040 3040 3040 3040 3040 3040 3040 3040 3040 3040 3039 3039 3040 3040 3040 3040 3039 3039 3038 3038 3039 3039 3039 3038 3038 3038 3039 3038 3038 3038 3037 3037 3038 3038 3038 3038 3038 3038 3038 3039 3039 3040 3040 3040 3040 3040 3040 3040 3040 3040 3040 3040 3040 3040 3040 3041 3041 3041 3041 3041 3041 3040 3041 3042
3039 3040 3039 3039 3040 3040 3039 3039 3039 3038 3038 3037 3037 3037 3038 3039 3039 3038 3037 3038 3038 3037 3038 3038 3038 3038 3038 3037 3036 3036 3037 3037 3036 3036 3036 3036 3036 3037 3037 3036 3036 3035 3036 3035 3035 3035 3036 3036 3036 3036 3036 3036 3035 3034 3034 3034 3034 3034 3034 3034 3035 3035 3035 3035 3036 3036 3036 3035 3035 3035 3035 3035 3035 3035 3035 3035 3035 3035 3036 3036 3036 3036 3037 3036 3036 3037
3038 3038 3038 3038 3038 3038 3038 3038 3037 3037 3037 3037 3037 3037 3037 3037 3037 3036 3036 3036 3036 3036 3036 3036 3036 3035 3035 3034 3034 3034 3033 3033 3033 3032 3032 3032 3033 3033 3033 3032 3033 3033 3033 3033 3032 3032 3033 3033 3033 3033 3032 3032 3032 3032 3031 3030 3029 3029 3030 3030 3030 3031 3031 3031 3031 3031 3031 3031 3030 3030 3030 3030 3030 3030 3030 3029 3030 3030 3031 3031 3031 3030 3031 3032 3032 3032
3037 3037 3037 3037 3037 3037 3037 3037 3037 3037 3037 3037 3036 3036 3035 3035 3035 3035 3035 3035 3035 3035 3034 3033 3032 3032 3031 3031 3030 3030 3030 3030 3029 3029 3028 3028 3028 3029 3029 3029 3029 3028 3029 3029 3029 3029 3029 3029 3029 3029 3029 3029 3029 3029 3028 3027 3026 3025 3025 3025 3025 3025 3026 3026 3026 3026 3026 3026 3026 3025 3025 3024 3024 3024 3024 3024 3025 3025 3026 3026 3025 3024 3024 3026 3027 3027
3036 3035 3036 3036 3036 3036 3036 3036 3037 3037 3036 3035 3034 3034 3034 3034 3034 3034 3033 3032 3032 3031 3030 3029 3028 3028 3027 3026 3026 3026 3026 3026 3026 3026 3025 3024 3024 3024 3025 3025 3024 3024 3024 3025 3025 3025 3025 3025 3024 3024 3024 3024 3024 3024 3024 3023 3022 3021 3020 3021 3021 3020 3020 3021 3021 3021 3021 3021 3021 3020 3020 3019 3019 3019 3019 3019 3020 3020 3020 3020 3018 3018 3019 3021 3021 3021
3034 3033 3034 3035 3035 3034 3034 3034 3035 3035 3033 3031 3031 3031 3032 3032 3032 3031 3030 3029 3028 3027 3026 3025 3025 3024 3024 3023 3022 3022 3022 3022 3022 3022 3021 3020 3020 3020 3020 3020 3020 3020 3020 3020 3021 3021 3021 3021 3020 3019 3019 3018 3018 3019 3018 3018 3017 3016 3016 3016 3016 3016 3016 3015 3015 3016 3015 3015 3015 3015 3014 3014 3013 3014 3015 3015 3014 3014 3015 3014 3012 3012 3014 3015 3015 3016
3033 3032 3033 3033 3033 3033 3032 3033 3033 3031 3029 3029 3029 3029 3029 3030 3029 3028 3026 3025 3025 3024 3023 3023 3022 3022 3021 3020 3019 3019 3018 3018 3018 3017 3017 3016 3015 3015 3016 3016 3016 3016 3016 3016 3017 3017 3017 3016 3016 3015 3014 3013 3013 3013 3012 3012 3012 3012 3012 3012 3012 3011 3011 3011 3010 3010 3009 3009 3010 3009 3009 3009 3009 3009 3010 3009 3008 3009 3009 3008 3007 3007 3009 3009 3010 3011
3033 3032 3032 3032 3031 3030 3031 3031 3029 3027 3026 3027 3028 3028 3027 3026 3025 3023 3023 3022 3021 3021 3020 3019 3019 3018 3017 3016 3015 3014 3013 3012 3012 3012 3012 3011 3010 3010 3010 3011 3011 3011 3012 3012 3012 3012 3011 3011 3011 3010 3008 3007 3008 3008 3007 3007 3007 3007 3007 3007 3007 3006 3006 3006 3005 3005 3004 3004 3005 3004 3003 3004 3004 3003 3003 3002 3003 3003 3004 3002 3002 3002 3003 3004 3005 3006
3031 3031 3030 3029 3029 3029 3029 3029 3027 3026 3025 3026 3026 3025 3024 3023 3021 3020 3019 3018 3017 3016 3015 3014 3013 3012 3012 3011 3010 3010 3008 3007 3007 3007 3006 3005 3005 3004 3005 3005 3005 3005 3006 3007 3006 3006 3005 3005 3004 3003 3003 3003 3003 3003 3003 3003 3003 3003 3003 3003 3003 3002 3001 3001 3000 3000 3000 3000 2999 2999 2998 2999 2998 2997 2996 2996 2997 2998 2998 2998 2997 2998 2998 2999 3001 3002
3030 3029 3028 3028 3027 3027 3027 3026 3026 3025 3023 3023 3022 3021 3020 3019 3018 3017 3016 3015 3013 3012 3011 3010 3008 3008 3007 3007 3006 3005 3004 3003 3002 3001 3000 3000 2999 2999 2999 2999 2999 3000 3000 3000 3000 2999 2999 2999 2999 2998 2999 2999 2999 2999 3000 3000 2999 2999 2998 2998 2998 2997 2997 2996 2996 2996 2996 2995 2994 2994 2993 2993 2992 2991 2991 2991 2991 2992 2993 2993 2993 2993 2995 2996 2998 2999